Terminal Aerodrome Forecast
Issued by NWS North Platte, NE

Home | Current Version | Previous Version | Text Only | Print | Product List | Glossary On
Versions: 1 2 3 4 5 6 7 8 9 10 11 12
000
FTUS43 KLBF 272330
TAFLBF
TAF
KLBF 272330Z 2800/2824 36011KT P6SM SCT050
     FM280300 32005KT P6SM BKN100
     FM281800 35012KT P6SM SKC=

USA.gov is the U.S. government's official web portal to all federal, state and local government web resources and services.